Regional Weather Roundup
Issued by NWS

Home | Current Version | Previous Version | Graphics & Text | Print | Product List | Glossary On
Versions: 1 2 3 4 5 6 7 8 9 10 11 12 13 14 15 16 17 18 19 20 21 22 23 24 25 26 27 28 29 30 31 32 33 34 35 36 37 38 39 40 41 42 43 44 45 46 47 48 49 50
000
ASUS43 KLSX 200757
RWRMO

WEATHER SUMMARY FOR MISSOURI
NATIONAL WEATHER SERVICE SPRINGFIELD MO
200 AM CST MON FEB 20 2017

NOTE: "FAIR" INDICATES FEW OR NO CLOUDS BELOW 12,000 FEET WITH NO
       SIGNIFICANT WEATHER AND/OR OBSTRUCTIONS TO VISIBILITY.
       CURRENT SKY AND/OR WEATHER CONDITIONS ARE NOT AVAILABLE FOR
       CHILLICOTHE AND FARMINGTON.

MOZ001>031-035>038-043-044-053-054-200900-
...NORTHERN AND WESTERN MISSOURI...

CITY           SKY/WX    TMP DP  RH WIND       PRES   REMARKS
KANSAS CTY INT CLOUDY    63  55  75 S17       29.86F
LEE`S SUMMIT   CLOUDY    62  56  80 S16       29.88F
ST JOSEPH      CLOUDY    63  56  78 SE10      29.85F
CHILLICOTHE      N/A     60  54  80 S8        29.92F

$$
MOZ066>068-077>081-088>096-101>105-200900-
...SOUTHWEST MISSOURI...

CITY           SKY/WX    TMP DP  RH WIND       PRES   REMARKS
SPRINGFIELD    CLOUDY    60  56  86 SE18      29.95F
JOPLIN         CLOUDY    64  55  72 SE13G23   29.88F

$$
MOZ032>034-039>042-045>050-055>058-069>072-200900-
...CENTRAL MISSOURI...

CITY           SKY/WX    TMP DP  RH WIND       PRES   REMARKS
COLUMBIA       NOT AVBL
JEFFERSON CITY PTCLDY    60  55  83 SE8       29.99S
ROLLA          MOCLDY    58  55  90 S12       30.01R
SEDALIA        CLEAR     60  55  83 SE12      29.95F
WARRENSBURG    CLOUDY    59  54  82 SE13      29.91F

$$
MOZ051-052-059>065-200900-
...EAST CENTRAL MISSOURI...

CITY           SKY/WX    TMP DP  RH WIND       PRES   REMARKS
ST LOUIS INTL  PTCLDY    54  50  86 SE8       30.05R

$$
MOZ072>076-082>087-097>100-106>115-200900-
...SOUTH CENTRAL AND SOUTHEAST MISSOURI...

CITY           SKY/WX    TMP DP  RH WIND       PRES   REMARKS
CAPE GIRARDEAU CLEAR     45  45 100 CALM      30.07S FOG
POPLAR BLUFF   CLOUDY    51  51 100 CALM      30.06R FOG
WEST PLAINS    CLOUDY    57  55  93 SE6       30.06R

$$



USA.gov is the U.S. government's official web portal to all federal, state and local government web resources and services.